FW7898 Weather Reports


time (UTC)temp
F
wind
direction
speed
knots
gust
knots
rain 1hr
in
rain 24hr
in
rain mn
in
humidity
%
barometer
mb
20260503214558 83 360 4.3 13.0 0.00 0.00 0.00 49 1010.7
20260503213100 83 360 4.3 12.2 0.00 0.00 0.00 47 1010.7
20260503211559 83 206 5.2 11.3 0.00 0.00 0.00 42 1010.7
20260503210058 85 204 4.3 10.4 0.00 0.00 0.00 38 1011.0
20260503204620 87 191 3.5 9.6 0.00 0.00 0.00 37 1011.0
20260503203102 88 190 3.5 10.4 0.00 0.00 0.00 36 1010.7
20260503201558 87 181 4.3 12.2 0.00 0.00 0.00 35 1010.7
20260503200057 86 194 3.5 9.6 0.00 0.00 0.00 38 1010.8
20260503194609 88 190 1.7 11.3 0.00 0.00 0.00 38 1011.0
20260503193118 87 189 3.5 13.0 0.00 0.00 0.00 38 1011.0
20260503191618 87 166 5.2 13.0 0.00 0.00 0.00 34 1011.0
20260503190057 87 186 2.6 9.6 0.00 0.00 0.00 34 1011.3
20260503184607 87 171 5.2 10.4 0.00 0.00 0.00 35 1011.6
20260503183057 87 180 1.7 7.0 0.00 0.00 0.00 34 1011.5
20260503181559 87 0 0.9 7.8 0.00 0.00 0.00 34 1011.7
20260503174604 85 178 0.9 4.3 0.00 0.00 0.00 38 1011.9
20260503173104 84 0 0.0 5.2 0.00 0.00 0.00 39 1011.5
20260503171557 83 184 0.0 5.2 0.00 0.00 0.00 41 1011.7
20260503170113 83 0 0.9 4.3 0.00 0.00 0.00 42 1011.7
20260503160109 80 217 0.9 3.5 0.00 0.00 0.00 47 1011.7
20260503100106 60 0 0.0 0.9 0.00 0.00 0.00 75 1009.4
20260503090109 60 0 0.0 1.7 0.00 0.00 0.00 70 1009.6
20260503081600 61 0 0.0 0.9 0.00 0.00 0.00 69 1010.3
20260503080106 61 0 0.0 0.9 0.00 0.00 0.00 69 1010.1
20260503071614 63 0 0.0 0.9 0.00 0.00 0.00 69 1010.3
20260503054612 65 0 0.0 0.9 0.00 0.00 0.00 58 1009.5
20260503053057 66 360 0.0 0.0 0.00 0.00 0.00 58 1009.3
20260503051558 67 0 0.0 0.9 0.00 0.00 0.00 57 1009.0
20260503050058 68 0 0.0 0.9 0.00 0.00 0.00 55 1008.8
20260503044558 68 0 0.0 1.7 0.00 0.00 0.00 58 1008.6
20260503043100 68 0 0.0 1.7 0.00 0.00 0.00 58 1008.6
20260503041559 68 0 0.0 0.0 0.00 0.00 0.00 56 1008.5
20260503040058 69 0 0.0 0.0 0.00 0.00 0.00 54 1008.5
20260503034559 70 0 0.0 0.9 0.00 0.00 0.00 53 1008.2
20260503033104 72 0 0.0 0.9 0.00 0.00 0.00 50 1008.0
20260503031557 73 0 0.0 2.6 0.00 0.00 0.00 47 1007.9
20260503024557 76 0 0.9 2.6 0.00 0.00 0.00 40 1007.7
20260503023100 77 222 0.9 2.6 0.00 0.00 0.00 37 1007.7
20260503021600 81 360 0.9 2.6 0.00 0.00 0.00 30 1007.7
20260503020059 83 360 0.9 3.5 0.00 0.00 0.00 23 1007.6
20260503014603 85 222 0.9 4.3 0.00 0.00 0.00 24 1007.4
20260503013057 86 222 1.7 4.3 0.00 0.00 0.00 24 1007.5
20260503011558 87 222 0.9 5.2 0.00 0.00 0.00 24 1007.4
20260503010056 88 0 1.7 5.2 0.00 0.00 0.00 23 1007.5
20260503004558 88 224 2.6 7.0 0.00 0.00 0.00 23 1007.7
20260503003100 89 225 2.6 7.0 0.00 0.00 0.00 23 1007.7
20260503001558 89 225 3.5 7.8 0.00 0.00 0.00 24 1007.8
20260503000104 90 225 4.3 7.8 0.00 0.00 0.00 23 1007.7
20260502234559 90 230 5.2 10.4 0.00 0.00 0.00 23 1007.8
20260502233058 91 218 4.3 9.6 0.00 0.00 0.00 22 1008.0
20260502231606 91 217 4.3 10.4 0.00 0.00 0.00 22 1007.9
20260502230059 92 217 5.2 10.4 0.00 0.00 0.00 22 1007.9
20260502224601 92 242 6.1 11.3 0.00 0.00 0.00 22 1007.9
20260502223057 93 229 3.5 9.6 0.00 0.00 0.00 21 1007.8
20260502221600 93 229 4.3 10.4 0.00 0.00 0.00 22 1008.1